Weather WX

World > North America > United States > Ohio

North Georgetown, Ohio Regional Weather

Lat: 40.84N, Lon: 80.99W
Wx Zone: OHZ041
Feedback

North Georgetown, OH Regional Weather

Expires:201906270100;;130475
ASUS41 KCLE 270012
RWRCLE
OHIO REGIONAL WEATHER ROUNDUP
NATIONAL WEATHER SERVICE WILMINGTON, OH
800 PM EDT WED JUN 26 2019

NOTE: "FAIR" INDICATES FEW OR NO CLOUDS BELOW 12,000 FEET WITH NO
SIGNIFICANT WEATHER AND/OR OBSTRUCTIONS TO VISIBILITY.


OHZ036-037-039>041-045>050-054>059-063>069-073>076-082>088-270100-
  CENTRAL AND SOUTHEAST OHIO
  
CITY           SKY/WX    TMP DP  RH WIND       PRES   REMARKS
COLUMBUS       PTSUNNY   87  62  43 SW8       30.08S                  
OSU AIRPORT    FAIR      84  65  52 SW9       30.09R                  
BOLTON FIELD   FAIR      82  67  61 W5        30.10S                  
RICKENBACK AFB FAIR      84  66  54 SW5       30.09R                  
NEWARK         FAIR      85  67  54 SW3       30.09R                  
MARION         FAIR      85  60  42 W6        30.09S                  
LANCASTER      FAIR      85  65  51 SW3       30.10S                  
ZANESVILLE     FAIR      84  65  52 SW5       30.10S                  
NEW PHILLY     FAIR      83  66  56 SW3       30.10S                  
$$
  

SKY/WX - Weather  TMP - Temperature  DP - Dew Point  RH - Relative Humidity
WIND - Wind Direction/Speed PRES - Barometric Pressure VSB - Visibility
WCI - Wind Chill Index E13G22 Wind - East Wind 13 mph/Gusts of 22 mph